Vorticity
nan nan nan nan nan nan nan nan nan nan nan nan nan nan nan nan nan nan nan nan nan nan nan nan nan nan nan nan nan nan nan nan nan nan nan nan nan nan nan nan nan nan nan nan
nan 7 8 7 10 6 5 7 11 10 9 8 7 4 3 2 12 8 10 7 6 7 9 13 8 4 2 2 1 8 18 16 18 21 10 12 8 2 11 10 10 7 7 nan
nan 8 8 7 8 7 4 9 11 9 10 5 6 11 12 9 6 5 6 10 9 10 11 10 8 10 7 2 2 4 18 18 6 12 9 7 14 8 6 4 9 8 5 nan
nan 8 7 7 8 7 6 10 11 7 7 9 10 6 5 9 9 9 4 7 15 12 8 8 7 8 11 7 6 6 16 14 12 12 10 9 6 13 12 6 5 3 5 nan
nan 9 9 8 7 6 5 9 12 9 7 12 13 9 8 5 7 8 9 8 6 8 15 14 11 11 12 9 5 6 6 3 13 24 27 16 13 12 6 11 3 11 15 nan
nan 10 9 9 9 2 1 4 8 14 14 12 9 9 10 9 7 6 6 8 9 10 8 5 9 13 14 13 10 6 -2 5 10 3 9 31 34 15 11 8 4 9 14 nan
nan 9 10 11 10 1 -0 6 7 9 10 9 6 4 8 13 8 10 10 9 9 10 6 9 13 13 11 10 7 7 8 3 2 5 10 18 15 17 15 13 9 5 4 nan
nan 11 10 9 9 3 4 6 5 6 11 13 9 10 8 12 15 11 7 10 6 9 17 14 10 12 13 18 20 19 11 5 6 11 6 10 16 24 22 21 11 10 9 nan
nan 9 10 10 10 4 4 9 4 6 11 12 8 15 17 11 11 16 13 10 11 10 11 11 10 6 8 9 9 20 23 9 6 5 2 10 20 8 20 21 17 18 15 nan
nan 11 11 10 10 6 3 12 10 6 11 9 11 10 9 9 11 12 17 19 14 11 9 11 13 11 10 5 3 5 6 22 21 2 5 0 -2 5 25 11 14 25 24 nan
nan 14 15 15 14 10 1 6 15 8 12 17 14 4 1 6 8 9 9 15 13 17 15 12 11 12 15 12 15 11 7 8 12 21 14 6 6 20 13 3 3 14 27 nan
nan 12 14 15 15 16 3 4 16 9 4 18 23 10 10 10 0 4 9 8 3 9 11 10 11 11 15 15 15 15 12 5 6 9 -4 1 8 27 27 10 6 16 20 nan
nan 15 15 13 13 14 8 9 14 11 10 10 20 19 11 14 12 4 7 4 7 2 5 9 14 12 13 16 11 12 15 11 13 13 6 -6 6 8 16 24 24 20 15 nan
nan 11 17 18 13 14 16 14 13 7 9 13 19 22 15 8 14 9 2 3 9 11 15 14 12 13 7 7 14 17 10 6 12 11 12 18 19 19 14 11 17 21 20 nan
nan 14 12 15 14 12 19 15 13 12 1 9 16 19 20 17 14 11 8 12 9 10 10 10 8 5 11 13 10 6 4 4 5 7 8 7 21 37 13 13 11 14 13 nan
nan 17 17 14 16 14 9 15 19 15 6 7 13 18 22 20 16 18 15 9 12 11 11 7 9 7 6 11 11 8 9 14 4 3 12 2 20 34 14 10 11 13 14 nan
nan 20 21 13 11 11 9 7 24 22 3 5 12 17 21 18 14 13 19 15 10 13 13 11 9 16 13 10 6 9 10 10 12 7 1 13 43 29 16 10 9 10 10 nan
nan 19 20 14 14 14 8 14 23 8 3 9 11 11 16 18 8 14 15 15 13 12 11 12 14 13 12 10 9 9 4 7 12 14 29 39 32 12 10 11 10 9 9 nan
nan 20 17 13 14 29 25 23 5 -2 8 10 11 10 9 13 14 12 14 13 11 11 12 12 12 11 4 5 14 14 12 9 2 27 45 42 16 7 8 8 9 9 6 nan
nan 17 12 11 13 13 7 9 6 9 10 11 12 12 14 10 11 10 9 12 11 11 13 12 15 13 9 5 4 5 12 18 33 37 20 9 9 9 11 9 7 7 10 nan
nan 13 11 11 10 1 5 11 11 9 10 14 14 15 10 10 12 11 9 10 12 11 19 10 9 19 25 25 17 11 11 18 36 24 12 14 17 13 9 8 11 12 12 nan
nan 14 12 9 11 10 13 11 11 9 12 12 12 16 14 13 11 12 10 9 10 16 13 10 11 13 18 33 31 23 20 21 18 20 18 15 13 11 11 11 10 11 11 nan
nan 8 11 10 12 10 13 10 10 14 13 9 11 12 13 12 11 11 10 13 10 12 7 9 10 11 14 18 17 16 18 17 12 12 11 12 13 14 12 9 10 11 11 nan
nan 12 8 10 11 9 7 7 12 14 15 14 11 11 11 11 10 10 11 11 13 9 10 10 12 13 12 12 15 14 10 9 10 10 11 10 9 10 11 12 14 11 11 nan
nan 9 12 11 9 12 12 15 14 11 12 12 11 9 11 10 11 11 12 10 11 12 12 14 15 14 12 13 14 13 13 13 11 11 11 11 10 10 11 12 12 10 10 nan
nan 12 10 12 13 11 13 14 15 13 10 11 10 9 13 11 10 12 11 10 13 12 14 15 14 13 13 14 13 12 12 13 13 12 11 11 12 12 11 11 9 12 13 nan
nan nan nan nan nan nan nan nan nan nan nan nan nan nan nan nan nan nan nan nan nan nan nan nan nan nan nan nan nan nan nan nan nan nan nan nan nan nan nan nan nan nan nan nan
CAPE
0 0 0 0 7 22 0 25 4 4 2 0 0 6 0 0 0 0 0 0 0 0 0 1 35 23 13 28 13 43 94 65 99 1 0 0 3 24 2 146 55 93 211 91
13 0 0 0 0 26 60 43 20 32 45 22 7 3 0 0 0 0 0 0 0 0 0 0 1 8 0 18 13 0 6 40 84 32 35 21 0 2 24 53 249 198 171 89
21 17 17 24 13 10 94 56 53 53 81 40 21 15 18 14 6 0 0 0 0 0 0 0 0 0 0 0 0 8 9 115 92 162 3 1 7 16 1 50 175 131 156 3
62 58 66 65 64 67 89 93 52 22 40 27 35 33 17 7 6 13 12 0 0 0 0 0 0 0 0 5 0 0 1 46 172 56 13 1 0 7 1 34 40 100 11 52
45 54 59 58 66 71 102 62 66 29 32 41 32 38 22 32 28 41 33 48 23 12 21 4 0 0 0 2 0 18 17 3 5 2 7 26 42 11 8 2 4 68 38 45
18 38 63 59 66 97 82 93 4 92 20 45 58 38 47 38 29 30 34 51 54 32 9 20 1 22 13 23 38 18 13 30 16 0 0 68 128 37 0 0 6 19 80 21
11 11 14 48 69 79 52 91 68 48 31 49 34 36 44 45 52 57 54 38 48 6 15 15 1 0 0 0 0 0 4 24 40 27 16 11 1 0 4 9 1 36 18 7
17 22 29 28 29 71 124 58 107 73 59 46 33 36 50 56 56 76 51 56 71 57 49 75 82 90 50 10 3 1 0 8 64 39 41 9 0 1 30 51 1 0 2 27
12 20 35 44 47 51 116 95 106 127 67 51 34 42 31 56 51 66 65 65 107 81 117 168 62 56 13 0 0 0 0 0 5 70 16 16 0 24 53 81 114 2 19 93
37 42 43 50 62 69 172 74 156 151 46 39 33 63 63 80 76 92 75 59 91 178 184 158 156 119 11 42 7 0 3 27 21 24 62 1 0 0 39 211 3 106 103 75
49 66 71 74 76 79 30 22 125 120 73 60 34 28 44 70 83 100 47 40 74 159 145 194 161 108 44 114 17 33 49 53 73 38 55 22 0 30 163 216 428 214 274 173
60 58 49 49 51 75 95 19 14 58 45 55 10 9 5 39 42 124 101 70 81 36 140 147 132 284 210 146 146 88 110 108 33 25 14 0 226 288 140 141 197 168 260 107
37 27 23 23 32 52 74 34 7 16 7 4 73 34 0 2 8 185 191 131 38 118 215 442 196 237 192 270 221 78 52 88 50 60 0 1 1 483 356 292 235 174 223 194
9 23 27 20 13 20 72 52 2 11 6 13 40 5 25 1 8 66 160 160 230 178 403 235 229 288 95 345 250 164 33 7 13 28 15 0 0 38 247 176 21 29 76 58
29 26 19 22 7 10 58 50 5 13 0 87 92 39 15 1 13 14 22 205 186 336 157 60 220 181 326 394 194 164 6 19 21 24 9 3 3 161 134 124 0 0 9 0
4 4 14 23 30 39 32 3 22 7 4 16 43 37 43 35 33 16 6 131 142 326 205 151 341 185 217 259 147 0 0 3 21 26 4 1 11 226 101 59 0 0 0 0
6 0 0 26 8 5 0 20 26 2 7 1 34 76 41 55 92 225 318 227 202 286 137 36 261 336 244 107 51 0 0 0 0 0 1 2 4 75 28 13 0 0 0 0
0 4 17 32 16 19 14 5 21 5 2 7 111 65 114 101 205 120 177 159 337 20 28 155 199 193 216 54 11 4 0 0 0 2 19 20 73 5 2 0 0 0 1 1
1 2 9 61 2 10 26 54 9 18 6 51 86 63 100 66 161 124 47 55 60 53 36 171 123 100 85 5 0 0 4 26 4 1 10 58 8 1 2 1 2 4 5 3
0 13 67 9 13 19 8 8 2 0 2 5 27 69 105 16 28 66 71 1 112 269 129 131 86 33 0 0 0 0 13 13 31 29 23 0 5 4 5 5 4 2 2 3
49 33 8 6 0 19 61 11 58 69 66 24 17 64 76 16 97 53 46 56 63 56 59 46 31 10 1 0 0 0 14 27 1 5 0 0 1 4 4 2 2 2 2 3
17 16 29 28 57 20 61 50 41 40 14 48 32 40 59 9 8 37 8 49 43 38 12 53 20 17 0 2 0 18 6 0 0 0 1 3 3 1 1 1 3 5 4 3
45 37 66 63 10 75 40 30 25 55 25 14 21 25 24 10 25 104 47 29 38 31 37 26 12 11 3 1 1 1 0 2 2 1 1 1 1 1 2 4 3 2 5 7
71 33 76 32 88 38 31 48 19 21 9 21 25 39 24 20 26 39 21 23 13 30 21 11 12 11 6 3 1 1 1 0 0 0 1 3 2 3 3 4 4 6 9 11
45 30 33 26 16 9 14 8 14 7 10 28 72 47 48 50 45 33 35 13 10 14 20 9 16 8 3 1 0 0 1 1 6 6 4 4 3 3 5 7 8 8 9 7
32 20 13 14 42 96 98 35 23 33 53 46 45 27 24 19 10 7 14 2 1 6 4 12 22 16 10 9 10 7 13 8 8 8 5 5 4 3 6 9 6 8 3 1
7 17 20 51 63 45 64 59 45 20 33 61 25 44 9 3 8 1 4 22 8 6 9 17 21 16 15 12 6 4 7 9 8 9 6 6 6 4 0 0 0 0 1 3